QPF
0.00 0.00 0.02 0.07 0.12 0.20 0.16 0.06 0.03 0.03 0.05 0.03 0.01 0.01 0.01 0.03 0.05 0.10 0.11 0.08 0.03 0.01 0.00 0.00 0.00 0.00 0.00 0.00 0.01 0.00 0.01 0.00 0.00 0.00 0.00 0.00 0.00 0.00 0.01 0.01 0.01 0.01 0.00 0.00 0.00 0.00 0.00 0.01 0.01
0.00 0.01 0.03 0.09 0.18 0.16 0.05 0.01 0.01 0.02 0.02 0.02 0.01 0.00 0.01 0.02 0.02 0.03 0.07 0.11 0.06 0.01 0.00 0.00 0.00 0.00 0.00 0.00 0.00 0.01 0.01 0.00 0.00 0.00 0.00 0.00 0.00 0.01 0.01 0.01 0.01 0.01 0.01 0.00 0.00 0.00 0.01 0.01 0.01
0.00 0.01 0.04 0.07 0.14 0.09 0.02 0.01 0.01 0.01 0.02 0.01 0.02 0.01 0.03 0.07 0.04 0.03 0.06 0.13 0.07 0.01 0.00 0.00 0.00 0.00 0.00 0.00 0.00 0.01 0.01 0.00 0.00 0.00 0.01 0.01 0.01 0.01 0.00 0.01 0.01 0.01 0.01 0.00 0.00 0.00 0.00 0.01 0.01
0.01 0.02 0.05 0.06 0.06 0.01 0.00 0.00 0.00 0.02 0.02 0.03 0.04 0.03 0.04 0.05 0.05 0.03 0.04 0.06 0.03 0.01 0.00 0.00 0.00 0.00 0.00 0.00 0.00 0.00 0.01 0.00 0.00 0.00 0.01 0.01 0.01 0.01 0.01 0.01 0.01 0.01 0.01 0.00 0.00 0.00 0.00 0.01 0.01
0.00 0.02 0.07 0.05 0.02 0.00 0.00 0.00 0.00 0.00 0.01 0.05 0.07 0.11 0.09 0.07 0.08 0.05 0.03 0.03 0.01 0.00 0.00 0.00 0.00 0.00 0.00 0.00 0.00 0.00 0.00 0.00 0.00 0.00 0.00 0.01 0.00 0.00 0.01 0.01 0.00 0.01 0.00 0.00 0.00 0.00 0.00 0.00 0.00
0.00 0.02 0.02 0.01 0.00 0.00 0.00 0.00 0.00 0.00 0.03 0.05 0.08 0.15 0.15 0.09 0.10 0.06 0.05 0.03 0.01 0.00 0.00 0.00 0.00 0.00 0.00 0.00 0.00 0.00 0.00 0.00 0.00 0.00 0.00 0.00 0.00 0.00 0.00 0.00 0.00 0.00 0.00 0.00 0.00 0.00 0.00 0.00 0.00
0.00 0.00 0.00 0.00 0.00 0.00 0.00 0.00 0.00 0.00 0.02 0.08 0.13 0.14 0.18 0.12 0.06 0.06 0.06 0.05 0.02 0.01 0.00 0.00 0.00 0.00 0.00 0.00 0.00 0.00 0.00 0.00 0.00 0.01 0.01 0.00 0.01 0.00 0.00 0.00 0.00 0.00 0.00 0.00 0.00 0.00 0.00 0.00 0.00
0.00 0.00 0.00 0.00 0.00 0.00 0.00 0.00 0.00 0.00 0.01 0.03 0.05 0.07 0.09 0.11 0.06 0.07 0.09 0.08 0.05 0.03 0.01 0.00 0.00 0.00 0.00 0.00 0.00 0.00 0.00 0.00 0.00 0.00 0.01 0.01 0.01 0.01 0.01 0.01 0.00 0.00 0.00 0.00 0.00 0.00 0.00 0.00 0.01
0.00 0.00 0.00 0.00 0.00 0.00 0.00 0.00 0.00 0.00 0.01 0.05 0.08 0.04 0.03 0.04 0.06 0.08 0.11 0.15 0.16 0.08 0.03 0.01 0.00 0.00 0.00 0.00 0.00 0.01 0.00 0.00 0.00 0.01 0.01 0.02 0.02 0.02 0.02 0.02 0.01 0.00 0.00 0.00 0.00 0.01 0.01 0.01 0.01
0.00 0.00 0.00 0.00 0.00 0.00 0.00 0.00 0.00 0.00 0.01 0.03 0.05 0.04 0.02 0.03 0.06 0.08 0.11 0.18 0.26 0.23 0.10 0.05 0.02 0.01 0.01 0.01 0.00 0.01 0.01 0.00 0.01 0.01 0.02 0.02 0.03 0.04 0.03 0.04 0.03 0.01 0.00 0.00 0.01 0.01 0.01 0.01 0.02
0.00 0.00 0.00 0.00 0.00 0.00 0.00 0.00 0.00 0.00 0.01 0.02 0.03 0.04 0.05 0.06 0.07 0.09 0.13 0.18 0.24 0.32 0.20 0.13 0.07 0.02 0.02 0.02 0.01 0.01 0.02 0.01 0.02 0.02 0.02 0.03 0.03 0.03 0.03 0.02 0.02 0.01 0.01 0.01 0.01 0.01 0.01 0.01 0.02
0.00 0.00 0.00 0.00 0.00 0.00 0.00 0.00 0.00 0.00 0.01 0.02 0.03 0.05 0.08 0.13 0.14 0.13 0.16 0.22 0.26 0.29 0.30 0.23 0.14 0.10 0.06 0.05 0.04 0.03 0.03 0.02 0.03 0.03 0.03 0.02 0.02 0.02 0.02 0.01 0.01 0.01 0.00 0.00 0.00 0.01 0.01 0.02 0.03
0.00 0.00 0.00 0.00 0.00 0.00 0.00 0.00 0.00 0.00 0.01 0.02 0.03 0.04 0.08 0.15 0.15 0.17 0.22 0.30 0.33 0.38 0.43 0.39 0.31 0.20 0.12 0.10 0.06 0.04 0.05 0.03 0.03 0.03 0.03 0.01 0.01 0.01 0.01 0.01 0.01 0.00 0.00 0.01 0.01 0.01 0.01 0.02 0.02
0.00 0.00 0.00 0.00 0.00 0.00 0.00 0.00 0.00 0.00 0.00 0.01 0.01 0.02 0.04 0.09 0.15 0.27 0.34 0.37 0.41 0.48 0.50 0.43 0.41 0.26 0.15 0.12 0.08 0.07 0.08 0.08 0.03 0.02 0.02 0.01 0.01 0.01 0.01 0.00 0.00 0.00 0.00 0.00 0.01 0.00 0.00 0.01 0.01
0.00 0.00 0.01 0.01 0.01 0.01 0.01 0.00 0.01 0.01 0.01 0.01 0.01 0.02 0.05 0.08 0.15 0.34 0.52 0.51 0.47 0.52 0.51 0.40 0.41 0.33 0.15 0.10 0.07 0.06 0.06 0.05 0.02 0.02 0.02 0.01 0.01 0.01 0.01 0.00 0.00 0.00 0.00 0.00 0.00 0.00 0.00 0.00 0.01
0.00 0.00 0.01 0.01 0.01 0.02 0.02 0.01 0.01 0.01 0.01 0.02 0.03 0.03 0.04 0.08 0.20 0.42 0.66 0.65 0.48 0.47 0.43 0.39 0.36 0.32 0.16 0.11 0.07 0.06 0.05 0.03 0.02 0.01 0.02 0.01 0.00 0.01 0.01 0.00 0.00 0.00 0.00 0.00 0.00 0.01 0.01 0.00 0.00
0.00 0.00 0.01 0.01 0.02 0.02 0.02 0.01 0.01 0.01 0.01 0.02 0.03 0.04 0.06 0.11 0.20 0.35 0.44 0.41 0.34 0.35 0.35 0.32 0.29 0.26 0.17 0.11 0.06 0.05 0.05 0.04 0.02 0.02 0.01 0.01 0.00 0.00 0.00 0.00 0.00 0.00 0.00 0.00 0.00 0.00 0.00 0.00 0.00
0.00 0.00 0.00 0.01 0.02 0.02 0.01 0.01 0.01 0.02 0.01 0.02 0.03 0.04 0.06 0.10 0.16 0.28 0.28 0.30 0.33 0.33 0.36 0.37 0.28 0.22 0.16 0.10 0.07 0.05 0.04 0.03 0.02 0.01 0.01 0.00 0.00 0.00 0.00 0.00 0.00 0.00 0.00 0.00 0.00 0.00 0.00 0.00 0.00
0.00 0.00 0.00 0.01 0.01 0.01 0.01 0.01 0.02 0.03 0.03 0.02 0.03 0.03 0.05 0.11 0.20 0.24 0.21 0.27 0.36 0.35 0.39 0.36 0.29 0.19 0.14 0.06 0.05 0.04 0.04 0.02 0.01 0.00 0.00 0.00 0.00 0.00 0.00 0.00 0.00 0.00 0.00 0.00 0.00 0.00 0.00 0.00 0.00
0.00 0.00 0.00 0.00 0.00 0.01 0.01 0.01 0.02 0.04 0.03 0.02 0.01 0.02 0.03 0.07 0.14 0.18 0.15 0.23 0.28 0.30 0.37 0.34 0.27 0.19 0.12 0.06 0.03 0.03 0.02 0.01 0.00 0.00 0.00 0.00 0.00 0.00 0.00 0.00 0.00 0.00 0.00 0.00 0.00 0.00 0.00 0.00 0.00
0.00 0.00 0.00 0.00 0.00 0.00 0.01 0.03 0.04 0.06 0.04 0.02 0.01 0.01 0.01 0.03 0.07 0.12 0.13 0.15 0.18 0.21 0.25 0.28 0.22 0.17 0.12 0.07 0.04 0.03 0.01 0.01 0.00 0.00 0.00 0.00 0.00 0.00 0.00 0.00 0.00 0.00 0.00 0.00 0.00 0.00 0.00 0.00 0.00
0.00 0.00 0.00 0.00 0.00 0.01 0.02 0.05 0.07 0.08 0.06 0.02 0.01 0.02 0.02 0.03 0.04 0.08 0.09 0.09 0.09 0.10 0.14 0.19 0.16 0.12 0.09 0.06 0.03 0.01 0.00 0.00 0.00 0.00 0.00 0.00 0.00 0.00 0.00 0.00 0.00 0.00 0.00 0.00 0.00 0.00 0.00 0.00 0.00
0.00 0.00 0.00 0.01 0.01 0.03 0.05 0.08 0.10 0.09 0.07 0.04 0.03 0.02 0.02 0.03 0.03 0.04 0.04 0.07 0.07 0.08 0.10 0.12 0.13 0.10 0.07 0.04 0.03 0.01 0.00 0.00 0.00 0.00 0.00 0.00 0.00 0.00 0.00 0.00 0.00 0.00 0.00 0.00 0.00 0.00 0.00 0.00 0.00
0.00 0.00 0.00 0.01 0.03 0.08 0.09 0.10 0.17 0.10 0.06 0.05 0.03 0.02 0.02 0.02 0.02 0.03 0.03 0.06 0.07 0.07 0.09 0.08 0.09 0.07 0.05 0.03 0.02 0.01 0.01 0.00 0.00 0.00 0.00 0.00 0.00 0.00 0.00 0.00 0.00 0.00 0.00 0.00 0.00 0.00 0.00 0.00 0.00
0.00 0.00 0.00 0.02 0.05 0.11 0.09 0.13 0.18 0.09 0.05 0.04 0.03 0.02 0.02 0.01 0.02 0.03 0.06 0.06 0.05 0.05 0.05 0.05 0.05 0.05 0.04 0.03 0.02 0.01 0.01 0.01 0.00 0.00 0.00 0.00 0.00 0.00 0.00 0.00 0.00 0.00 0.00 0.00 0.00 0.00 0.00 0.00 0.00
0.00 0.00 0.01 0.02 0.04 0.07 0.08 0.14 0.17 0.11 0.05 0.03 0.02 0.02 0.01 0.01 0.01 0.01 0.04 0.03 0.04 0.03 0.03 0.04 0.05 0.05 0.04 0.03 0.02 0.01 0.01 0.00 0.00 0.00 0.00 0.00 0.00 0.00 0.00 0.00 0.00 0.00 0.00 0.00 0.00 0.00 0.00 0.00 0.00
0.00 0.00 0.01 0.01 0.02 0.07 0.12 0.14 0.16 0.11 0.05 0.03 0.03 0.02 0.01 0.01 0.01 0.00 0.01 0.01 0.01 0.02 0.03 0.04 0.05 0.06 0.05 0.04 0.03 0.02 0.01 0.01 0.01 0.00 0.00 0.00 0.00 0.00 0.00 0.00 0.00 0.00 0.00 0.00 0.00 0.00 0.00 0.00 0.00
0.01 0.01 0.01 0.01 0.02 0.07 0.12 0.14 0.12 0.10 0.06 0.04 0.03 0.02 0.02 0.01 0.01 0.00 0.00 0.00 0.00 0.01 0.02 0.05 0.05 0.08 0.09 0.09 0.08 0.05 0.03 0.02 0.02 0.02 0.01 0.01 0.01 0.01 0.01 0.01 0.01 0.01 0.01 0.01 0.01 0.01 0.01 0.01 0.00
0.01 0.01 0.01 0.02 0.02 0.05 0.10 0.12 0.08 0.08 0.06 0.05 0.04 0.02 0.02 0.02 0.01 0.01 0.00 0.00 0.00 0.01 0.02 0.04 0.05 0.08 0.09 0.08 0.08 0.08 0.07 0.06 0.06 0.06 0.04 0.03 0.02 0.01 0.01 0.01 0.01 0.02 0.02 0.02 0.02 0.02 0.02 0.02 0.02
0.01 0.02 0.03 0.03 0.03 0.04 0.07 0.07 0.05 0.07 0.07 0.07 0.05 0.03 0.03 0.02 0.01 0.01 0.00 0.00 0.01 0.02 0.02 0.03 0.04 0.04 0.02 0.02 0.03 0.05 0.06 0.07 0.08 0.10 0.09 0.06 0.03 0.02 0.01 0.02 0.01 0.02 0.02 0.02 0.02 0.02 0.02 0.02 0.03
MSLP
1011.16 1012.10 1013.09 1013.92 1014.42 1014.48 1014.10 1013.37 1012.47 1011.62 1011.03 1010.82 1011.04 1011.60 1012.36 1013.14 1013.74 1014.04 1014.01 1013.70 1013.24 1012.77 1012.43 1012.33 1012.47 1012.82 1013.27 1013.72 1014.08 1014.30 1014.38 1014.37 1014.34 1014.36 1014.48 1014.69 1014.97 1015.28 1015.56 1015.76 1015.87 1015.89 1015.86 1015.81 1015.78 1015.79 1015.84 1015.90 1015.96
1011.76 1012.86 1013.90 1014.65 1014.95 1014.73 1014.02 1012.97 1011.79 1010.73 1010.00 1009.72 1009.92 1010.50 1011.31 1012.12 1012.77 1013.13 1013.17 1012.95 1012.59 1012.25 1012.05 1012.07 1012.33 1012.77 1013.28 1013.77 1014.16 1014.41 1014.52 1014.55 1014.57 1014.63 1014.77 1015.00 1015.27 1015.55 1015.78 1015.93 1015.98 1015.97 1015.93 1015.89 1015.88 1015.91 1015.98 1016.07 1016.14
1012.40 1013.59 1014.61 1015.22 1015.29 1014.79 1013.79 1012.47 1011.08 1009.88 1009.07 1008.78 1008.99 1009.61 1010.44 1011.28 1011.96 1012.35 1012.44 1012.30 1012.05 1011.84 1011.77 1011.91 1012.27 1012.79 1013.35 1013.88 1014.29 1014.56 1014.70 1014.76 1014.80 1014.89 1015.04 1015.26 1015.50 1015.73 1015.91 1016.01 1016.03 1016.01 1015.97 1015.95 1015.98 1016.05 1016.16 1016.27 1016.37
1013.00 1014.20 1015.11 1015.54 1015.37 1014.62 1013.39 1011.90 1010.40 1009.16 1008.38 1008.13 1008.39 1009.05 1009.90 1010.75 1011.43 1011.83 1011.95 1011.87 1011.71 1011.61 1011.65 1011.90 1012.35 1012.92 1013.52 1014.05 1014.47 1014.73 1014.87 1014.94 1015.00 1015.10 1015.25 1015.45 1015.66 1015.84 1015.97 1016.03 1016.04 1016.01 1016.00 1016.02 1016.10 1016.23 1016.38 1016.53 1016.64
1013.50 1014.60 1015.34 1015.55 1015.15 1014.20 1012.83 1011.28 1009.79 1008.63 1007.95 1007.81 1008.17 1008.87 1009.73 1010.57 1011.21 1011.59 1011.72 1011.68 1011.60 1011.58 1011.72 1012.06 1012.56 1013.16 1013.75 1014.27 1014.65 1014.89 1015.02 1015.08 1015.14 1015.24 1015.39 1015.56 1015.75 1015.90 1015.99 1016.03 1016.02 1016.02 1016.04 1016.11 1016.25 1016.43 1016.62 1016.80 1016.92
1013.83 1014.75 1015.25 1015.22 1014.62 1013.53 1012.12 1010.61 1009.25 1008.26 1007.76 1007.78 1008.24 1008.99 1009.85 1010.64 1011.23 1011.57 1011.69 1011.68 1011.65 1011.71 1011.93 1012.33 1012.86 1013.45 1014.01 1014.47 1014.80 1015.00 1015.09 1015.15 1015.21 1015.31 1015.46 1015.63 1015.80 1015.93 1016.01 1016.03 1016.03 1016.04 1016.10 1016.22 1016.41 1016.63 1016.85 1017.04 1017.18
1013.96 1014.62 1014.85 1014.57 1013.80 1012.64 1011.26 1009.88 1008.73 1007.97 1007.70 1007.89 1008.46 1009.24 1010.08 1010.80 1011.33 1011.62 1011.72 1011.74 1011.76 1011.90 1012.18 1012.62 1013.16 1013.72 1014.23 1014.62 1014.88 1015.03 1015.09 1015.14 1015.21 1015.33 1015.49 1015.68 1015.85 1015.98 1016.05 1016.07 1016.08 1016.11 1016.18 1016.33 1016.54 1016.78 1017.02 1017.22 1017.35
1013.87 1014.24 1014.18 1013.68 1012.76 1011.58 1010.28 1009.09 1008.17 1007.67 1007.61 1007.97 1008.62 1009.42 1010.20 1010.86 1011.31 1011.56 1011.67 1011.72 1011.81 1012.02 1012.37 1012.84 1013.38 1013.91 1014.35 1014.68 1014.88 1014.98 1015.02 1015.08 1015.17 1015.33 1015.53 1015.75 1015.95 1016.08 1016.16 1016.18 1016.18 1016.20 1016.27 1016.42 1016.63 1016.87 1017.10 1017.29 1017.42
1013.58 1013.66 1013.34 1012.63 1011.62 1010.43 1009.25 1008.25 1007.56 1007.28 1007.40 1007.87 1008.57 1009.35 1010.07 1010.66 1011.06 1011.28 1011.41 1011.53 1011.70 1012.00 1012.42 1012.93 1013.47 1013.97 1014.37 1014.64 1014.79 1014.86 1014.91 1014.99 1015.13 1015.34 1015.60 1015.86 1016.09 1016.25 1016.33 1016.34 1016.32 1016.32 1016.37 1016.49 1016.66 1016.88 1017.09 1017.27 1017.39
1013.14 1012.97 1012.42 1011.56 1010.48 1009.33 1008.25 1007.41 1006.90 1006.78 1007.02 1007.55 1008.24 1008.97 1009.63 1010.15 1010.51 1010.75 1010.93 1011.13 1011.41 1011.81 1012.31 1012.87 1013.42 1013.90 1014.27 1014.51 1014.64 1014.71 1014.79 1014.91 1015.11 1015.39 1015.71 1016.02 1016.29 1016.47 1016.55 1016.54 1016.50 1016.46 1016.46 1016.53 1016.66 1016.84 1017.02 1017.18 1017.30
1012.63 1012.26 1011.55 1010.59 1009.48 1008.37 1007.39 1006.66 1006.27 1006.24 1006.52 1007.03 1007.67 1008.33 1008.91 1009.39 1009.75 1010.02 1010.29 1010.59 1010.99 1011.49 1012.07 1012.68 1013.25 1013.74 1014.10 1014.33 1014.47 1014.57 1014.68 1014.86 1015.13 1015.47 1015.85 1016.21 1016.51 1016.70 1016.78 1016.77 1016.69 1016.61 1016.56 1016.57 1016.65 1016.78 1016.93 1017.08 1017.20
1012.13 1011.64 1010.84 1009.83 1008.73 1007.67 1006.76 1006.11 1005.77 1005.75 1006.00 1006.45 1007.00 1007.57 1008.10 1008.54 1008.92 1009.26 1009.61 1010.03 1010.53 1011.12 1011.77 1012.42 1013.02 1013.51 1013.88 1014.13 1014.31 1014.45 1014.62 1014.86 1015.19 1015.58 1016.00 1016.39 1016.71 1016.92 1017.00 1016.97 1016.87 1016.76 1016.67 1016.63 1016.66 1016.75 1016.88 1017.02 1017.14
1011.73 1011.18 1010.36 1009.36 1008.30 1007.30 1006.45 1005.84 1005.51 1005.45 1005.63 1005.98 1006.43 1006.91 1007.38 1007.82 1008.22 1008.63 1009.07 1009.57 1010.15 1010.80 1011.48 1012.15 1012.76 1013.27 1013.67 1013.96 1014.19 1014.39 1014.62 1014.92 1015.28 1015.69 1016.13 1016.53 1016.85 1017.07 1017.15 1017.13 1017.03 1016.90 1016.79 1016.72 1016.72 1016.78 1016.90 1017.03 1017.18
1011.50 1010.94 1010.14 1009.20 1008.22 1007.29 1006.51 1005.92 1005.57 1005.45 1005.53 1005.78 1006.13 1006.54 1006.97 1007.41 1007.85 1008.31 1008.80 1009.35 1009.95 1010.60 1011.27 1011.92 1012.53 1013.05 1013.48 1013.83 1014.12 1014.40 1014.69 1015.01 1015.39 1015.80 1016.22 1016.60 1016.91 1017.12 1017.22 1017.22 1017.15 1017.04 1016.94 1016.87 1016.86 1016.91 1017.02 1017.16 1017.32
1011.43 1010.89 1010.15 1009.30 1008.42 1007.60 1006.89 1006.33 1005.96 1005.79 1005.79 1005.94 1006.21 1006.57 1006.98 1007.42 1007.89 1008.37 1008.87 1009.40 1009.96 1010.55 1011.15 1011.75 1012.32 1012.85 1013.32 1013.73 1014.11 1014.46 1014.80 1015.15 1015.52 1015.89 1016.26 1016.60 1016.88 1017.08 1017.21 1017.25 1017.23 1017.17 1017.11 1017.07 1017.08 1017.13 1017.24 1017.38 1017.55
1011.49 1010.97 1010.31 1009.58 1008.84 1008.15 1007.53 1007.02 1006.66 1006.44 1006.38 1006.47 1006.69 1007.01 1007.41 1007.86 1008.32 1008.79 1009.25 1009.70 1010.16 1010.63 1011.11 1011.61 1012.13 1012.65 1013.17 1013.66 1014.12 1014.55 1014.94 1015.31 1015.65 1015.97 1016.27 1016.54 1016.78 1016.97 1017.12 1017.22 1017.28 1017.31 1017.32 1017.33 1017.36 1017.43 1017.53 1017.68 1017.85
1011.58 1011.09 1010.54 1009.95 1009.38 1008.83 1008.34 1007.91 1007.56 1007.33 1007.23 1007.28 1007.46 1007.76 1008.15 1008.60 1009.04 1009.46 1009.84 1010.17 1010.47 1010.77 1011.10 1011.48 1011.93 1012.45 1013.01 1013.58 1014.14 1014.66 1015.11 1015.48 1015.79 1016.04 1016.25 1016.45 1016.64 1016.83 1017.01 1017.18 1017.33 1017.45 1017.54 1017.62 1017.69 1017.77 1017.88 1018.01 1018.18
1011.62 1011.18 1010.75 1010.34 1009.95 1009.59 1009.23 1008.90 1008.59 1008.36 1008.23 1008.24 1008.39 1008.67 1009.05 1009.48 1009.89 1010.24 1010.51 1010.69 1010.81 1010.92 1011.08 1011.33 1011.72 1012.22 1012.83 1013.49 1014.15 1014.76 1015.26 1015.65 1015.92 1016.11 1016.24 1016.37 1016.51 1016.69 1016.91 1017.14 1017.39 1017.60 1017.79 1017.93 1018.04 1018.13 1018.23 1018.35 1018.51
1011.53 1011.18 1010.90 1010.69 1010.53 1010.36 1010.16 1009.92 1009.66 1009.42 1009.25 1009.21 1009.32 1009.57 1009.92 1010.32 1010.69 1010.97 1011.12 1011.15 1011.11 1011.04 1011.04 1011.17 1011.48 1011.98 1012.64 1013.38 1014.14 1014.83 1015.40 1015.80 1016.05 1016.18 1016.25 1016.31 1016.41 1016.58 1016.83 1017.13 1017.46 1017.77 1018.03 1018.23 1018.37 1018.47 1018.56 1018.67 1018.81
1011.28 1011.06 1010.99 1011.03 1011.11 1011.15 1011.11 1010.96 1010.71 1010.44 1010.20 1010.08 1010.12 1010.31 1010.62 1010.98 1011.31 1011.53 1011.60 1011.52 1011.33 1011.13 1010.99 1011.02 1011.28 1011.77 1012.45 1013.27 1014.11 1014.87 1015.49 1015.92 1016.16 1016.25 1016.26 1016.27 1016.34 1016.51 1016.79 1017.14 1017.54 1017.92 1018.24 1018.48 1018.65 1018.75 1018.83 1018.93 1019.06
1010.87 1010.87 1011.07 1011.39 1011.74 1012.00 1012.09 1012.00 1011.73 1011.38 1011.03 1010.78 1010.70 1010.80 1011.05 1011.38 1011.68 1011.88 1011.91 1011.77 1011.51 1011.21 1010.99 1010.94 1011.14 1011.61 1012.31 1013.16 1014.05 1014.87 1015.53 1015.98 1016.21 1016.28 1016.27 1016.25 1016.30 1016.47 1016.77 1017.16 1017.60 1018.03 1018.40 1018.67 1018.85 1018.95 1019.03 1019.11 1019.24
1010.40 1010.68 1011.20 1011.84 1012.46 1012.93 1013.14 1013.06 1012.73 1012.24 1011.72 1011.30 1011.07 1011.05 1011.23 1011.52 1011.82 1012.03 1012.08 1011.94 1011.67 1011.35 1011.08 1010.98 1011.14 1011.57 1012.25 1013.10 1014.00 1014.83 1015.50 1015.96 1016.20 1016.26 1016.24 1016.21 1016.26 1016.43 1016.74 1017.16 1017.63 1018.09 1018.48 1018.76 1018.95 1019.05 1019.12 1019.20 1019.34
1009.95 1010.56 1011.43 1012.40 1013.29 1013.93 1014.22 1014.12 1013.68 1013.02 1012.29 1011.67 1011.25 1011.09 1011.19 1011.46 1011.78 1012.05 1012.16 1012.10 1011.87 1011.57 1011.30 1011.18 1011.29 1011.67 1012.29 1013.09 1013.94 1014.75 1015.40 1015.85 1016.09 1016.16 1016.14 1016.11 1016.17 1016.35 1016.67 1017.10 1017.58 1018.05 1018.45 1018.74 1018.93 1019.03 1019.10 1019.20 1019.35
1009.60 1010.56 1011.78 1013.05 1014.17 1014.95 1015.28 1015.12 1014.54 1013.68 1012.73 1011.89 1011.28 1010.99 1011.01 1011.26 1011.63 1011.98 1012.21 1012.26 1012.13 1011.89 1011.65 1011.51 1011.58 1011.88 1012.42 1013.12 1013.89 1014.63 1015.24 1015.66 1015.89 1015.96 1015.95 1015.95 1016.02 1016.21 1016.54 1016.97 1017.45 1017.91 1018.31 1018.60 1018.79 1018.91 1018.99 1019.10 1019.27
1009.40 1010.68 1012.18 1013.70 1014.99 1015.86 1016.19 1015.95 1015.23 1014.17 1013.02 1011.97 1011.19 1010.78 1010.73 1010.99 1011.42 1011.87 1012.23 1012.41 1012.40 1012.26 1012.07 1011.93 1011.95 1012.17 1012.59 1013.17 1013.83 1014.47 1015.01 1015.39 1015.60 1015.68 1015.69 1015.71 1015.80 1016.00 1016.33 1016.75 1017.22 1017.68 1018.07 1018.37 1018.57 1018.70 1018.80 1018.93 1019.12
1009.33 1010.84 1012.55 1014.22 1015.61 1016.51 1016.80 1016.48 1015.62 1014.41 1013.09 1011.89 1010.98 1010.48 1010.40 1010.66 1011.15 1011.70 1012.19 1012.50 1012.62 1012.58 1012.44 1012.32 1012.30 1012.44 1012.75 1013.21 1013.74 1014.28 1014.73 1015.06 1015.26 1015.34 1015.37 1015.41 1015.52 1015.73 1016.06 1016.47 1016.93 1017.38 1017.77 1018.07 1018.28 1018.43 1018.56 1018.71 1018.92
1009.33 1010.97 1012.77 1014.49 1015.87 1016.74 1016.97 1016.56 1015.61 1014.31 1012.90 1011.62 1010.66 1010.11 1010.01 1010.29 1010.83 1011.46 1012.04 1012.46 1012.69 1012.74 1012.66 1012.56 1012.52 1012.60 1012.82 1013.17 1013.59 1014.03 1014.42 1014.70 1014.88 1014.97 1015.02 1015.08 1015.20 1015.42 1015.75 1016.15 1016.60 1017.04 1017.42 1017.74 1017.97 1018.15 1018.31 1018.48 1018.70
1009.34 1010.97 1012.73 1014.37 1015.68 1016.45 1016.60 1016.13 1015.15 1013.83 1012.42 1011.15 1010.19 1009.66 1009.58 1009.87 1010.43 1011.10 1011.73 1012.22 1012.52 1012.64 1012.62 1012.55 1012.51 1012.56 1012.73 1013.01 1013.36 1013.73 1014.06 1014.32 1014.49 1014.58 1014.65 1014.73 1014.87 1015.10 1015.42 1015.81 1016.25 1016.68 1017.07 1017.40 1017.67 1017.87 1018.06 1018.25 1018.48
1009.30 1010.79 1012.38 1013.85 1014.98 1015.62 1015.69 1015.19 1014.23 1012.98 1011.66 1010.49 1009.62 1009.15 1009.10 1009.40 1009.95 1010.61 1011.24 1011.74 1012.07 1012.23 1012.25 1012.22 1012.21 1012.28 1012.44 1012.70 1013.03 1013.37 1013.68 1013.92 1014.10 1014.21 1014.29 1014.39 1014.54 1014.77 1015.08 1015.47 1015.89 1016.32 1016.72 1017.07 1017.36 1017.60 1017.81 1018.02 1018.25
1009.20 1010.46 1011.78 1012.99 1013.89 1014.36 1014.35 1013.85 1012.97 1011.87 1010.72 1009.72 1009.00 1008.63 1008.62 1008.92 1009.44 1010.04 1010.60 1011.06 1011.37 1011.54 1011.60 1011.61 1011.65 1011.77 1011.97 1012.25 1012.59 1012.94 1013.26 1013.52 1013.71 1013.84 1013.94 1014.05 1014.21 1014.44 1014.75 1015.12 1015.54 1015.96 1016.37 1016.73 1017.05 1017.31 1017.55 1017.77 1018.00
Thickness
5821 5819 5816 5803 5781 5762 5758 5776 5792 5794 5797 5808 5813 5807 5796 5787 5778 5769 5791 5798 5795 5789 5786 5783 5782 5781 5779 5777 5776 5775 5774 5772 5772 5770 5769 5767 5766 5764 5762 5761 5759 5757 5756 5754 5753 5752 5751 5749 5748
5821 5819 5807 5788 5764 5747 5759 5785 5792 5799 5807 5813 5810 5807 5798 5790 5796 5791 5791 5793 5792 5787 5784 5782 5780 5779 5777 5775 5774 5773 5772 5771 5770 5768 5767 5766 5764 5763 5761 5759 5757 5756 5754 5753 5751 5750 5749 5747 5746
5822 5817 5793 5774 5761 5755 5771 5794 5800 5811 5816 5814 5804 5804 5797 5790 5794 5792 5794 5793 5789 5785 5782 5780 5778 5777 5775 5774 5772 5771 5770 5769 5768 5767 5765 5764 5762 5761 5759 5757 5756 5754 5752 5751 5750 5748 5747 5745 5744
5817 5802 5787 5767 5761 5781 5794 5803 5811 5812 5812 5815 5805 5791 5794 5803 5801 5797 5795 5792 5786 5782 5779 5778 5776 5774 5773 5772 5770 5769 5768 5767 5766 5765 5764 5762 5761 5759 5758 5756 5754 5752 5750 5749 5747 5746 5745 5743 5742
5812 5790 5771 5760 5771 5796 5811 5816 5817 5810 5806 5806 5802 5784 5782 5799 5802 5796 5791 5787 5783 5779 5776 5774 5773 5772 5771 5770 5769 5767 5766 5765 5764 5763 5762 5760 5759 5757 5756 5754 5752 5750 5748 5747 5745 5744 5743 5741 5740
5795 5782 5760 5755 5777 5803 5816 5824 5818 5809 5803 5803 5797 5782 5778 5793 5793 5789 5787 5783 5780 5777 5773 5771 5770 5769 5769 5768 5767 5765 5764 5763 5762 5761 5760 5758 5757 5755 5754 5752 5750 5748 5746 5745 5743 5741 5740 5739 5738
5787 5774 5763 5770 5782 5798 5816 5826 5818 5810 5804 5803 5803 5780 5775 5783 5789 5788 5784 5779 5775 5772 5770 5768 5767 5767 5766 5765 5764 5763 5762 5761 5760 5759 5758 5756 5755 5753 5751 5750 5748 5746 5744 5742 5741 5739 5738 5737 5736
5801 5779 5770 5774 5784 5796 5820 5825 5824 5816 5807 5814 5808 5783 5773 5782 5789 5785 5779 5774 5770 5768 5767 5765 5764 5764 5764 5762 5761 5760 5760 5759 5758 5757 5755 5754 5752 5751 5749 5748 5746 5744 5742 5740 5739 5737 5735 5734 5734
5810 5773 5761 5776 5788 5801 5821 5818 5821 5825 5814 5810 5808 5801 5799 5793 5787 5778 5770 5765 5762 5761 5762 5762 5762 5761 5761 5760 5759 5758 5758 5757 5756 5755 5753 5752 5750 5749 5747 5745 5744 5742 5740 5739 5737 5735 5733 5732 5732
5796 5767 5779 5801 5809 5810 5820 5819 5817 5811 5801 5797 5797 5800 5799 5790 5782 5773 5766 5760 5757 5756 5756 5758 5758 5759 5758 5757 5756 5756 5755 5755 5754 5753 5751 5750 5748 5747 5745 5743 5742 5740 5738 5737 5735 5733 5731 5731 5730
5799 5787 5803 5814 5823 5822 5819 5818 5820 5805 5791 5795 5792 5792 5790 5782 5776 5770 5764 5761 5759 5758 5755 5754 5755 5756 5756 5756 5753 5753 5752 5752 5751 5751 5750 5747 5746 5745 5744 5742 5740 5739 5737 5735 5733 5732 5730 5729 5729
5803 5808 5817 5820 5828 5824 5820 5818 5813 5808 5805 5810 5804 5798 5787 5776 5770 5766 5762 5759 5757 5754 5753 5752 5753 5753 5753 5753 5752 5751 5750 5749 5749 5749 5748 5746 5744 5743 5742 5740 5738 5737 5735 5733 5732 5730 5729 5727 5727
5805 5809 5819 5825 5826 5827 5823 5815 5810 5807 5813 5810 5802 5792 5783 5775 5769 5764 5760 5756 5753 5749 5749 5749 5751 5749 5750 5751 5750 5749 5748 5747 5747 5747 5746 5745 5743 5741 5740 5738 5737 5735 5733 5732 5731 5729 5728 5726 5726
5808 5812 5817 5821 5823 5825 5816 5811 5806 5802 5809 5802 5794 5785 5779 5771 5764 5758 5753 5749 5748 5747 5746 5748 5751 5749 5748 5749 5749 5748 5747 5746 5745 5745 5745 5744 5742 5740 5739 5736 5735 5733 5732 5731 5730 5728 5727 5725 5724
5814 5804 5807 5815 5819 5819 5814 5797 5799 5804 5802 5793 5787 5781 5774 5767 5761 5754 5751 5748 5746 5745 5745 5744 5747 5748 5746 5747 5747 5746 5745 5744 5743 5743 5743 5742 5741 5739 5737 5735 5733 5732 5731 5730 5729 5727 5726 5724 5723
5800 5788 5780 5805 5815 5816 5800 5778 5797 5802 5795 5785 5782 5776 5768 5760 5756 5752 5749 5746 5746 5743 5742 5742 5744 5742 5743 5745 5745 5745 5743 5742 5742 5741 5741 5740 5739 5738 5736 5734 5732 5732 5731 5729 5727 5725 5723 5721 5720
5775 5766 5771 5793 5814 5810 5795 5780 5795 5799 5791 5780 5775 5770 5762 5755 5751 5750 5747 5745 5744 5742 5740 5739 5740 5740 5740 5741 5743 5742 5741 5741 5740 5739 5739 5739 5738 5737 5735 5733 5732 5731 5730 5728 5727 5723 5721 5719 5718
5759 5764 5773 5784 5805 5803 5788 5783 5791 5794 5788 5778 5772 5765 5758 5752 5749 5748 5745 5744 5743 5740 5738 5737 5737 5737 5737 5738 5739 5738 5737 5738 5738 5737 5737 5737 5736 5735 5734 5733 5731 5730 5728 5726 5725 5722 5721 5719 5718
5778 5773 5774 5790 5808 5795 5782 5779 5783 5788 5783 5775 5768 5763 5756 5751 5749 5747 5743 5741 5739 5737 5736 5735 5734 5736 5736 5736 5735 5734 5733 5734 5734 5735 5735 5735 5734 5734 5733 5731 5730 5729 5726 5725 5723 5721 5719 5717 5717
5782 5774 5778 5791 5802 5790 5776 5773 5780 5783 5779 5777 5770 5762 5756 5749 5745 5743 5741 5739 5737 5737 5736 5734 5734 5735 5736 5737 5737 5736 5734 5732 5733 5734 5733 5733 5733 5733 5732 5730 5729 5728 5725 5723 5722 5720 5717 5716 5715
5781 5778 5782 5784 5785 5781 5771 5756 5764 5774 5777 5774 5770 5764 5757 5752 5746 5743 5741 5739 5738 5737 5737 5736 5735 5736 5736 5736 5736 5733 5730 5729 5728 5729 5730 5732 5733 5732 5731 5730 5728 5727 5725 5722 5720 5719 5717 5713 5713
5772 5795 5795 5787 5768 5748 5755 5730 5748 5757 5763 5765 5763 5760 5756 5753 5748 5744 5741 5739 5738 5738 5739 5737 5736 5735 5735 5736 5735 5732 5729 5726 5728 5729 5730 5731 5732 5732 5731 5729 5728 5726 5724 5722 5721 5719 5717 5714 5710
5786 5798 5791 5781 5760 5740 5739 5728 5734 5748 5749 5757 5761 5760 5758 5755 5751 5747 5745 5742 5741 5741 5738 5737 5735 5735 5735 5736 5736 5733 5731 5730 5730 5730 5730 5730 5731 5731 5730 5729 5727 5725 5723 5722 5720 5718 5716 5714 5711
5799 5787 5774 5757 5742 5721 5727 5724 5726 5738 5747 5754 5760 5761 5758 5757 5753 5750 5748 5745 5742 5741 5739 5737 5736 5735 5736 5736 5735 5734 5732 5731 5729 5728 5728 5728 5728 5729 5729 5728 5726 5724 5723 5721 5720 5718 5716 5713 5711
5791 5760 5731 5725 5712 5711 5726 5723 5729 5755 5763 5761 5761 5761 5760 5758 5753 5750 5747 5744 5741 5740 5739 5738 5737 5736 5737 5737 5736 5735 5734 5733 5731 5730 5729 5727 5726 5726 5727 5727 5725 5723 5722 5721 5719 5717 5715 5713 5710
5780 5763 5728 5714 5708 5709 5719 5717 5740 5766 5770 5771 5770 5766 5763 5758 5755 5753 5750 5747 5744 5743 5741 5740 5739 5738 5738 5737 5737 5736 5735 5734 5733 5732 5731 5729 5728 5728 5728 5726 5724 5723 5721 5720 5718 5716 5714 5712 5709
5775 5766 5763 5735 5722 5705 5709 5724 5746 5766 5768 5769 5768 5765 5763 5761 5758 5756 5753 5751 5748 5746 5745 5744 5742 5740 5739 5738 5737 5736 5735 5735 5733 5732 5731 5730 5729 5728 5727 5725 5723 5721 5720 5718 5715 5713 5711 5709 5707
5789 5777 5752 5731 5710 5700 5706 5716 5725 5748 5756 5760 5761 5762 5762 5762 5760 5759 5757 5754 5753 5751 5749 5746 5744 5742 5741 5739 5738 5737 5736 5735 5734 5732 5730 5729 5728 5728 5725 5723 5721 5719 5717 5715 5712 5710 5708 5706 5704
5776 5767 5753 5734 5727 5705 5696 5714 5752 5752 5757 5758 5761 5764 5764 5763 5762 5762 5760 5758 5756 5753 5750 5747 5745 5743 5740 5740 5738 5737 5735 5734 5732 5731 5730 5729 5727 5726 5724 5722 5719 5717 5714 5712 5709 5706 5704 5702 5700
5778 5765 5750 5729 5720 5716 5705 5719 5763 5762 5763 5762 5763 5766 5767 5766 5765 5765 5763 5760 5757 5753 5751 5749 5747 5744 5742 5741 5738 5736 5735 5733 5731 5730 5729 5728 5726 5724 5722 5720 5717 5714 5712 5709 5707 5703 5702 5699 5696